THORAD AGENA D DEB, 4645

Orbit data source: Space-Track

THORAD AGENA D DEB, 4645 is space debris in SSO originally from a launch on Wed, 08 Apr 1970 UTC launched from the Air Force Western Test Range (AFWTR). Debris objects in space refer to the collection of defunct objects orbiting the Earth. Examples of debris include non-operational satellites, rocket bodies, and fragments generated from explosions, collisions, or faulty payload assembly.

Loading next visibility...
Identifier
4645, 1970-025AD
Orbit
SSO
Country
Flag of USUS
Related business
Manufacturer
Unknown
Mission
Spacecraft
Bus & Motor
Unknown
Mass
Unknown
Launch date (UTC)
1970-04-08 (56 years ago)
Launch vehicle
Unknown
Launch site
Air Force Western Test Range (AFWTR)
Object type
Payload
Rocket body
Debris
Shape & HBR
Unknown shape, 0.1 m
Radar Cross Section
Medium (>0.1 m² and <1 m²)

Expand to show TLE details & history
Last TLE update: 14 hours ago

TLE from 14 hours ago
0 THORAD AGENA D DEB
1 04645U 70025AD  26256.09282706 -.00000003  00000-0  10621-3 0  9995
2 04645  99.8834 296.5576 0328711  51.7243   7.7908 12.86638644646731
Epoch: 2026-09-13T02:13Z
TLE epoch observation values (Epoch: 2026-09-13T02:13:40.257Z)
Latitude
58.69925°
Longitude
-105.51535°
Altitude
1,074.273 km
Speed
7.439 km/s
True Right ascension
18h 39m 58s
True Declination
58° 33' 10"
Sunlit
Object was in daylight at epoch
Visualization orbit readout
Latitude
Unknown
Longitude
Unknown
Altitude
Unknown
Speed
Unknown
Apparent Right ascension
Unknown
Apparent Declination
Unknown
Sunlit
N/A
Visualization observer readout
Local Sidereal Time
08:34:27
Azimuth
Unknown
Elevation
Unknown
Doppler factor
Unknown
Orbital elements
Apogee altitude
1,565.078 km
Perigee altitude
1,059.492 km
Semi-major axis
7,690.422 km
Eccentricity
0.03287
Inclination
99.8834°
RAAN
296.5576°
Arg. of periapsis
51.7243°
True anomaly
8.32303°
Mean anomaly
7.7908°
Eccentric anomaly
8.0547°
Mean motion
3.21824 °/min
Orbital period
111.86 mins
BSTAR
0.00010621
Loading maneuver chart data...
Computing Atmospheric mass density...

Documentation

Showing up to 5 results
|